カタログに戻る

STARLINK-34343 DEB

運用中PO
NORAD 69730·DEBRIS·🇺🇸 United States

打ち上げ May 27, 2025 から Vandenberg Space Force Base

Loading…

次のパス (今後24時間)

TLE

経年Source: Space-Track

元期: Sep 5, 2026, 21:20 UTC

1 69730U 25112AB  26248.88919455  .03401036  11390-1  13804-1 0  9996
2 69730  97.5992 303.0667 0017648 266.9564  92.9688 15.88832013 23047

AllMySatでSTARLINK-34343 DEBをリアルタイム追跡

Download on the App Store